Location: Unspecified
(29.9680°N, 0.0000°E)
Time: 18:49:10
(UTC+00:00)

S-56A Canister/Altair - Visible Passes

Search period start: 25 June 2019 00:00
Search period end: 05 July 2019 00:00
Orbit: 633 x 2499 km, 38.9° (Epoch: 25 June)

Date Brightness Start Highest point End Pass type
(mag) Time Alt. Az. Time Alt. Az. Time Alt. Az.
25 Jun 7.3 20:14:50 10° WNW 20:20:38 83° SSW 20:23:23 25° ESE visible
26 Jun 7.6 19:41:45 10° WNW 19:48:05 84° NNE 19:52:26 12° ESE visible
26 Jun 9.5 21:48:19 10° W 21:49:51 14° WSW 21:49:51 14° WSW visible
27 Jun 9.0 21:14:53 10° W 21:18:40 20° SW 21:18:55 20° SW visible
28 Jun 8.7 20:41:34 10° W 20:46:13 26° SW 20:48:01 21° S visible
29 Jun 8.6 20:08:15 10° WNW 20:13:46 34° SW 20:17:08 15° SSE visible
30 Jun 8.5 19:34:57 10° WNW 19:41:18 44° SW 19:45:58 10° SSE visible
03 Jul 9.8 20:03:14 10° W 20:06:17 14° SW 20:08:57 10° SSW visible
04 Jul 9.8 19:29:04 10° W 19:33:50 19° SW 19:37:40 10° S visible
